Orbital Elements at Epoch 2459000.5 (2020-May-31.0) TDB
Reference: JPL 18 (heliocentric ecliptic J2000)
Element | Value | Uncertainty (1-sigma) | Units |
e | .1819216144661326 | 3.0443e-08 | |
a | 2.35255318806516 | 7.9396e-09 | au |
q | 1.924572913974898 | 7.0982e-08 | au |
i | 1.838627506192619 | 4.2797e-06 | deg |
node | 172.7930186993754 | 0.00010869 | deg |
peri | 285.1063873717158 | 0.00010941 | deg |
M | 181.5797984317198 | 1.4388e-05 | deg |
tp | 2459653.704440339775 (2022-Mar-15.20444034) | 5.4612e-05 | TDB |
period | 1317.976307925689 3.61 | 6.6721e-06 1.827e-08 | d yr |
n | .2731460329257283 | 1.3828e-09 | deg/d |
Q | 2.780533462155421 | 9.384e-09 | au |
|
| | Orbit Determination Parameters
Additional Information
|